Theta_e
350 351 351 352 354 353 352 351 350 350 350 351 351 351 351 351 351 352 351 350 351 352 351 351 351 348 349 349 349 350 350 348 346
347 350 351 351 353 352 351 352 350 350 350 351 351 351 351 351 351 351 352 350 349 351 351 351 353 347 349 350 351 351 351 348 346
341 342 348 350 352 351 350 349 350 350 350 351 352 352 351 351 351 351 351 351 350 350 350 350 351 351 351 350 350 352 351 350 347
338 340 342 345 349 350 350 348 349 350 351 352 352 352 352 351 352 351 351 351 351 350 350 350 351 351 350 352 349 352 352 351 348
337 341 343 343 344 346 347 349 348 349 350 351 352 352 352 352 352 352 352 352 351 350 350 350 350 351 351 353 351 351 352 351 349
335 338 341 344 343 346 348 348 348 348 349 350 351 352 353 353 353 353 352 352 352 351 351 351 351 352 353 353 353 352 350 351 351
333 336 343 344 344 348 347 346 347 347 348 349 350 351 352 353 354 353 353 353 352 352 352 352 352 351 351 352 353 352 351 350 352
332 334 337 340 344 349 351 347 347 346 347 349 349 351 352 354 354 354 354 353 353 353 353 352 352 352 352 352 352 351 352 351 352
335 332 335 340 346 346 348 349 347 346 347 348 350 351 351 352 354 355 355 354 354 353 354 353 354 354 353 353 352 351 351 350 351
335 334 335 337 344 346 347 345 346 346 347 347 350 351 352 352 354 355 355 355 355 354 355 354 354 354 354 354 353 350 349 349 351
334 334 334 337 333 339 344 342 342 345 346 348 350 351 352 353 353 355 355 355 355 355 355 355 355 354 354 354 353 351 348 348 350
332 334 334 334 331 333 339 342 343 345 348 350 351 352 353 353 353 355 355 355 355 355 356 356 356 355 355 354 354 352 350 348 350
328 328 330 332 330 333 336 342 342 345 348 350 353 353 353 353 354 355 356 356 356 356 355 356 356 356 355 354 354 353 351 350 350
333 334 331 328 329 333 338 338 339 347 347 351 351 352 354 355 356 356 356 357 357 357 357 357 356 356 355 355 353 355 351 351 350
357 357 352 330 334 340 345 345 343 348 352 350 351 352 354 357 357 356 356 357 356 358 358 358 358 357 356 356 355 353 353 352 351
356 357 354 349 348 349 348 349 349 351 351 350 352 353 355 357 358 358 358 359 359 359 358 358 358 357 355 355 353 355 353 353 351
347 350 351 346 345 347 348 349 351 352 354 354 352 355 356 357 359 359 360 359 359 358 358 355 352 357 356 355 354 353 350 351 350
340 340 340 342 344 344 343 343 342 341 341 353 359 354 353 356 357 358 360 360 360 359 357 358 359 359 357 357 349 343 342 339 336
341 341 341 341 341 340 340 341 341 340 340 339 346 351 353 352 353 355 358 361 354 359 359 358 357 359 358 354 349 340 343 346 338
336 339 339 340 343 343 343 343 343 343 343 342 343 344 347 350 350 352 359 347 352 345 345 355 355 356 356 354 341 339 336 334 333
Wind_Speed
19 22 24 25 25 29 32 36 38 38 36 36 36 37 39 39 38 34 35 32 27 25 22 22 22 25 23 21 20 19 18 13 13
18 22 24 27 26 31 33 36 38 39 39 39 39 41 39 39 38 37 34 33 34 28 26 21 22 25 25 22 21 21 21 16 17
19 19 21 23 23 29 34 38 39 41 40 40 40 39 39 39 40 41 40 35 35 33 30 30 22 25 25 24 22 22 24 19 19
20 19 20 21 22 30 36 34 33 37 40 39 38 40 40 39 38 38 37 35 36 38 36 35 30 28 28 26 24 23 26 24 21
13 14 17 18 20 23 28 32 33 37 38 40 43 43 41 41 39 39 39 41 40 40 38 37 39 35 31 27 27 25 28 27 23
12 12 14 14 14 17 20 29 33 35 39 43 41 38 39 37 38 38 40 41 41 39 39 38 37 34 33 30 27 29 29 30 30
10 10 11 12 13 15 18 28 31 34 37 38 38 39 39 40 41 43 41 41 41 40 41 38 37 39 38 34 30 30 31 29 29
9 11 10 12 14 14 15 21 28 33 34 34 37 36 38 42 42 41 39 40 40 39 37 41 42 39 37 37 33 32 31 30 29
16 14 13 12 12 13 16 20 28 32 34 37 39 39 42 41 38 39 42 41 41 40 39 38 36 37 38 39 38 37 40 38 31
17 14 13 13 14 13 13 23 29 32 37 33 37 40 39 35 36 38 40 39 38 40 39 37 39 39 39 40 42 42 47 44 35
19 18 17 13 14 13 21 26 26 30 29 34 34 34 31 32 34 37 36 37 39 39 40 41 40 39 40 40 43 45 48 47 45
20 18 16 13 15 17 18 21 26 26 27 30 30 32 32 34 37 35 34 38 41 40 38 38 40 37 38 41 41 44 47 46 42
17 17 15 13 14 12 14 16 20 23 27 26 29 33 39 39 38 38 39 41 38 37 38 38 36 38 39 41 39 40 46 45 38
6 9 12 14 9 9 8 11 19 23 23 26 34 22 21 25 29 32 31 28 26 28 30 31 34 37 40 41 38 33 44 45 39
4 2 3 6 8 6 3 6 16 16 17 18 16 18 23 27 30 31 29 31 32 31 26 25 25 28 29 32 34 40 35 42 45
6 6 9 10 11 12 8 7 10 11 9 11 13 18 21 24 25 27 28 29 28 27 30 27 20 23 25 22 25 29 40 38 38
7 8 9 12 13 12 10 12 12 10 7 6 10 14 18 21 25 27 29 30 31 33 34 29 33 30 28 29 26 26 32 37 40
7 8 9 10 11 10 11 9 9 5 3 1 5 10 14 19 23 27 27 32 34 37 40 42 44 42 39 34 25 26 27 29 25
7 8 10 11 12 11 8 8 8 7 6 3 4 6 7 12 17 21 26 27 26 36 36 40 37 34 31 30 36 36 37 39 38
6 10 11 11 10 10 10 8 9 8 7 5 3 5 8 10 11 16 17 17 23 16 15 24 35 38 37 35 38 48 54 40 28
Wind_Direction
214 209 211 212 208 206 203 205 206 205 203 208 207 208 210 214 218 218 220 222 222 224 226 226 220 224 227 231 235 231 232 229 227
210 210 211 211 209 206 205 205 205 205 204 206 205 208 210 213 214 216 219 219 224 225 228 228 220 223 226 227 230 224 224 223 226
219 218 213 214 211 210 207 208 203 203 205 206 206 206 209 212 213 216 217 217 219 220 221 227 219 221 222 225 229 222 221 221 223
215 216 215 214 211 210 211 209 206 204 202 203 204 206 208 210 212 214 215 217 219 223 224 227 224 226 224 224 226 223 222 222 221
231 226 220 217 216 212 212 208 206 206 204 202 205 207 207 209 209 209 210 212 217 221 221 223 227 226 225 222 222 221 222 221 220
231 228 228 226 216 212 210 209 207 205 204 208 208 205 206 208 208 207 209 211 212 215 217 217 219 220 220 221 219 219 223 225 226
257 240 214 212 219 215 212 210 206 206 209 209 206 204 204 205 208 209 209 211 212 211 213 212 214 219 221 222 221 220 223 224 224
286 260 235 216 217 215 213 208 207 208 208 203 204 203 203 209 210 209 208 209 211 212 211 212 214 213 216 219 219 220 219 220 220
270 263 252 245 226 214 212 207 205 205 205 203 197 199 206 208 206 205 207 207 207 207 210 211 209 209 211 212 216 218 222 224 218
251 250 241 238 228 219 217 214 207 204 206 200 199 202 208 205 204 205 207 207 204 207 207 208 209 210 209 213 217 219 226 227 221
249 248 250 237 238 234 220 224 218 215 201 199 202 207 208 206 204 207 206 205 207 207 206 207 207 209 210 213 218 220 226 228 228
243 249 252 246 251 244 236 215 213 201 198 197 198 206 206 204 205 207 206 206 209 210 206 206 208 209 209 212 217 218 223 226 224
240 240 242 241 235 225 223 220 209 198 202 196 203 207 209 205 205 206 205 209 212 210 211 210 206 207 210 215 218 217 221 223 219
247 266 244 235 219 219 224 207 197 200 203 205 214 217 219 214 211 213 214 210 212 218 219 226 210 213 207 210 212 217 223 223 213
142 207 137 168 156 132 110 174 195 198 197 205 203 204 204 206 206 207 209 203 208 194 210 225 239 239 225 216 208 210 222 225 222
143 137 103 115 129 114 95 94 158 153 157 170 182 196 202 207 207 208 206 201 202 195 195 197 228 236 241 240 225 212 215 219 220
129 114 108 112 105 97 86 81 94 115 143 180 193 202 204 205 204 205 205 206 200 197 194 202 201 211 212 214 210 225 217 212 198
123 106 101 95 88 87 80 73 71 63 51 64 203 218 220 217 216 210 208 207 203 204 208 205 192 205 201 195 183 191 197 171 145
121 113 103 91 90 89 86 79 70 49 34 1 310 273 246 235 230 222 218 211 213 214 220 219 206 209 208 190 180 168 179 171 151
101 93 93 92 84 77 76 74 59 37 20 4 356 335 309 285 263 249 226 201 207 204 225 230 222 214 202 194 170 161 157 159 183